User: anonymous   Login
Location: Berduj
(43.0019°N, 22.3781°E)
Time: 05:02:38
(UTC+00:00)
Language:

Cosmos 1833 Rocket - Orbit

View from above orbital plane
View from above orbital plane
View from above satellite
View from above satellite

Ground track
Ground track

The orbit data is extracted from the following two-line orbital elements,

1 17590U 87027B   19341.72902922  .00000201  00000-0  12408-3 0  9998
2 17590  71.0042  47.2705 0005386 339.7481  20.3429 14.16777907692095
Epoch (UTC): 07 December 2019 17:29:48
Eccentricity: 0.0005386
inclination: 71.0042°
perigee height: 832 km
apogee height: 840 km
right ascension of ascending node: 47.2705°
argument of perigee: 339.7481°
revolutions per day: 14.16777907
mean anomaly at epoch: 20.3429°
orbit number at epoch: 69209

The dashed part of the orbit path shows where the satellite is in the earth's shadow,  

DLR